Wind_Speed
10 9 10 11 10 9 8 7 7 6 5 6 6 5 5 5 5 5 5 5 5 4 4 3 3 3 3 3 4 4 5 5 5 5 5 5 4 4 5 5 5 5 4 4 4 4 4 4 4
10 10 10 11 10 9 8 7 7 6 6 6 6 5 5 5 5 5 5 4 4 3 3 3 3 2 3 3 4 4 4 5 5 5 5 5 5 5 5 6 6 6 5 5 5 5 5 5 5
11 11 10 10 12 10 8 7 7 6 6 7 7 7 6 6 5 6 5 4 3 3 3 3 2 2 2 3 4 4 4 5 5 5 6 5 5 6 6 6 7 6 6 5 5 5 5 5 6
13 12 12 11 12 11 9 8 7 7 6 6 6 6 6 6 6 6 5 5 4 3 3 3 2 2 2 3 4 4 4 5 5 5 6 6 6 6 6 6 6 6 6 6 5 5 5 5 5
14 13 13 13 12 11 10 8 7 7 6 6 6 6 6 6 7 6 6 5 4 3 3 2 1 1 1 2 3 4 4 5 5 5 6 6 6 6 6 6 7 7 6 6 5 4 4 5 5
15 14 13 13 13 11 10 8 8 7 7 7 7 7 7 6 7 6 5 5 4 4 3 2 1 1 1 2 3 4 4 5 5 5 6 6 6 7 7 7 7 7 6 6 5 4 4 4 4
16 15 15 14 13 12 11 9 9 9 9 8 8 8 7 7 7 6 5 4 4 4 3 2 1 0 1 2 3 3 4 4 5 5 6 6 6 7 7 7 8 7 7 6 5 4 4 4 4
17 16 15 13 12 12 11 11 9 8 9 9 8 8 7 7 6 6 5 4 4 4 3 2 1 1 0 1 2 3 3 4 5 5 6 6 7 7 7 8 8 8 7 6 6 5 4 4 4
17 17 15 15 13 12 11 10 10 9 8 9 8 8 7 7 6 6 5 5 5 4 3 2 2 1 0 1 2 3 3 4 4 5 5 6 7 7 7 7 7 7 7 7 6 5 4 4 4
17 17 16 15 13 12 10 9 9 10 9 9 8 8 8 7 7 6 5 5 5 4 3 3 2 1 1 1 1 2 3 3 4 5 5 6 6 7 7 7 7 8 7 7 6 5 4 4 4
18 17 16 15 13 12 11 10 10 10 11 10 9 9 8 8 7 6 6 5 5 4 3 2 2 2 1 1 1 2 3 3 4 5 5 6 6 7 7 7 7 7 7 7 6 6 5 4 3
17 17 16 15 13 11 12 12 11 10 10 10 10 10 10 9 8 7 7 6 6 4 4 4 3 2 2 2 2 2 3 3 4 4 5 5 6 6 7 7 7 7 7 7 7 6 5 4 3
18 17 15 16 13 11 11 12 11 11 10 11 11 11 10 10 9 8 7 7 6 5 5 5 4 3 3 3 2 2 2 3 3 3 4 5 6 6 7 7 8 8 7 7 7 6 5 5 4
17 17 15 14 13 12 12 12 12 11 11 12 11 11 11 10 9 9 9 8 6 6 6 5 4 3 3 2 2 1 2 2 2 3 4 4 5 6 7 8 8 8 7 7 6 5 5 4 4
16 15 15 14 13 13 13 12 12 11 12 12 12 11 11 10 10 9 9 8 6 7 6 6 5 3 3 3 2 1 1 1 2 2 3 3 4 5 6 8 8 8 7 6 6 5 5 5 4
15 15 14 14 12 12 12 12 12 12 12 12 12 11 10 10 9 9 9 8 7 7 7 6 5 4 4 4 3 2 2 2 2 2 2 3 4 5 6 7 7 7 7 6 6 5 5 5 5
14 14 14 13 13 12 12 11 12 12 12 11 11 12 11 10 10 9 9 8 8 7 7 7 6 5 4 4 4 3 3 2 2 2 2 3 4 4 5 6 6 6 6 6 6 5 5 5 4
13 13 13 13 13 12 12 11 11 12 12 12 12 12 12 10 10 9 9 9 9 8 8 8 6 5 5 5 5 4 4 4 3 3 3 3 3 4 5 5 6 6 6 6 6 6 5 4 4
13 13 13 12 12 12 12 12 11 12 12 12 12 12 12 11 11 10 10 10 10 9 8 8 7 7 6 5 5 5 4 4 4 3 3 3 4 4 5 5 6 6 6 6 6 6 5 5 5
12 12 12 12 12 12 12 12 12 12 12 12 13 13 13 12 11 11 11 10 11 10 9 9 8 7 7 6 6 6 5 5 5 4 4 4 4 5 5 6 6 6 6 6 6 5 5 5 5
10 11 11 11 11 12 12 13 12 12 12 12 12 13 13 12 12 11 11 11 11 11 10 9 9 8 8 7 6 6 5 5 5 5 5 5 5 6 6 6 6 6 6 6 6 6 6 5 5
9 11 12 11 10 11 12 12 12 12 12 12 12 12 12 12 13 12 11 11 12 12 11 10 10 10 9 8 7 6 6 5 5 5 6 6 6 6 7 7 7 7 7 7 6 6 7 7 7
9 10 10 10 10 10 10 11 11 12 12 13 12 12 12 13 13 12 11 12 12 12 12 11 11 11 10 9 8 7 7 6 5 6 6 6 6 7 7 7 7 7 7 8 8 8 8 8 8
9 10 9 9 9 10 10 10 9 10 11 12 12 12 13 13 13 12 12 12 12 12 12 11 11 10 10 10 9 9 8 7 7 7 7 7 8 8 7 8 8 8 8 8 8 8 9 8 9
9 9 10 10 10 8 8 9 7 9 11 12 12 11 12 13 13 12 12 12 12 11 12 11 11 11 11 10 10 10 9 9 9 8 8 8 9 9 9 9 9 9 9 9 9 9 9 9 10
8 9 9 9 9 8 8 8 7 8 10 11 10 10 11 13 13 12 12 12 12 12 12 12 11 11 11 11 11 11 10 10 10 10 9 9 10 11 11 11 10 10 10 9 9 10 10 11 11
8 8 8 8 8 8 8 8 8 8 9 9 10 10 10 11 12 12 11 11 11 11 12 12 12 12 12 12 12 12 12 11 11 11 11 11 11 11 11 11 11 11 11 10 11 11 11 12 12
7 8 8 7 7 7 7 8 7 8 8 8 9 10 10 11 11 11 11 11 11 11 12 12 12 12 12 12 12 12 12 12 12 12 11 11 12 12 12 13 13 13 13 12 12 13 13 13 14
6 7 8 8 7 8 8 8 8 8 8 8 8 9 9 10 11 11 11 11 12 12 12 12 13 13 12 12 12 13 13 13 13 13 13 12 12 13 13 14 14 14 14 14 14 14 15 15 15
7 7 7 8 8 9 9 8 9 8 8 8 8 8 8 10 11 12 12 12 12 12 12 12 13 13 13 13 13 13 14 14 14 14 15 14 14 15 15 15 16 16 16 15 16 16 16 16 16
Wind_Direction
184 184 183 185 190 194 198 196 188 185 174 170 163 164 166 169 169 167 160 143 134 130 128 115 100 86 69 53 44 33 23 20 20 17 13 12 12 10 3 353 346 341 332 313 296 284 276 272 261
194 195 194 195 198 205 204 198 189 188 186 183 181 185 183 178 172 166 157 155 151 143 136 122 105 84 58 48 38 30 25 26 23 17 14 12 8 3 360 352 347 342 331 315 299 285 278 271 263
203 201 201 205 207 209 204 200 197 198 188 189 191 194 192 190 184 179 170 165 162 164 150 139 112 87 65 50 36 26 24 25 20 15 13 11 7 0 357 353 349 345 338 326 306 290 281 272 265
209 207 209 213 212 211 208 203 202 203 191 187 189 192 197 192 190 187 186 191 179 162 147 146 127 99 69 42 31 24 20 19 16 11 11 9 5 0 356 352 348 344 340 334 325 305 284 272 265
212 212 215 218 215 215 215 212 212 209 197 199 196 190 186 184 189 188 190 197 197 189 165 146 134 120 62 28 26 23 17 16 15 15 13 9 5 358 354 351 348 347 345 339 329 312 289 272 263
214 213 216 218 215 220 218 213 215 210 205 202 196 192 189 189 187 189 194 197 194 192 179 174 145 122 56 22 20 18 19 22 18 17 14 10 3 358 355 354 351 350 351 347 342 327 304 284 265
214 210 214 220 219 222 218 210 209 204 208 205 200 196 194 192 190 190 191 192 194 196 189 187 164 75 27 30 27 22 23 25 19 14 11 8 4 359 356 355 355 354 352 351 348 338 319 297 284
214 211 215 221 224 224 222 214 212 207 203 202 201 198 198 197 197 192 193 196 198 196 187 187 202 267 351 25 24 23 19 16 12 10 6 3 -0 359 356 356 357 358 356 354 352 344 327 304 294
213 213 215 219 225 221 220 215 216 215 209 206 207 206 207 207 203 199 198 194 191 189 197 214 224 234 260 8 7 3 360 359 359 3 3 360 0 360 354 354 355 356 355 354 351 346 333 317 303
213 215 216 219 223 222 221 218 216 216 213 213 213 212 208 208 203 201 202 204 200 199 209 210 212 216 264 332 341 344 342 351 355 2 359 357 356 356 355 356 356 357 355 352 350 345 342 326 309
213 217 220 219 221 225 223 218 217 215 211 214 215 216 213 209 206 204 210 208 194 203 218 220 218 235 250 275 318 323 331 347 355 356 357 358 360 0 2 3 1 359 357 353 351 346 340 340 336
214 217 221 219 221 221 220 215 215 215 217 214 213 214 215 214 212 215 219 211 205 210 220 225 217 227 245 255 291 330 336 347 355 0 1 360 360 1 2 1 2 3 1 357 355 354 351 354 353
212 216 219 219 222 218 215 215 216 222 221 217 217 214 215 217 218 221 220 222 221 220 217 225 222 232 244 259 270 303 331 344 343 343 350 357 0 4 9 8 5 3 2 1 359 360 6 7 1
211 214 217 218 222 221 216 215 219 225 223 215 214 214 216 215 217 220 219 220 220 216 215 223 226 232 243 257 264 296 312 328 326 333 347 357 5 12 12 10 6 3 1 2 6 10 15 11 7
211 212 216 216 222 223 218 218 219 220 217 215 215 215 215 216 218 217 214 214 215 213 217 220 223 231 240 246 244 258 279 304 316 329 351 3 6 7 9 10 11 10 8 9 15 17 18 15 10
210 211 215 216 219 220 219 219 216 218 216 213 213 212 212 216 211 207 208 215 217 216 220 222 224 228 239 238 238 245 254 277 296 319 344 353 356 358 0 5 9 8 7 11 15 17 18 17 11
209 214 217 217 215 217 218 219 216 216 215 212 212 211 212 212 210 211 214 218 217 217 220 223 227 230 239 241 238 241 246 255 274 296 323 338 346 349 354 359 2 1 1 5 8 12 12 11 9
211 217 221 221 214 216 219 218 215 217 215 215 213 212 213 212 211 213 216 217 215 217 224 229 232 236 240 244 246 250 251 258 272 284 300 326 337 339 343 350 354 353 355 360 1 2 4 -0 358
211 215 221 216 211 215 218 220 219 219 220 218 216 214 214 215 215 215 216 216 216 220 227 232 237 239 239 240 245 248 257 263 268 281 299 313 321 328 334 338 342 345 346 349 353 353 355 356 349
206 212 216 214 211 216 219 220 218 215 217 218 218 216 212 214 216 219 221 214 218 221 229 233 236 240 241 241 244 249 259 268 264 272 285 294 304 313 322 325 329 333 334 336 341 344 343 347 347
204 207 211 213 213 215 216 215 216 214 217 215 216 215 213 217 216 218 221 219 218 222 227 230 237 239 240 240 243 250 257 267 269 274 279 284 294 305 312 318 320 323 324 324 328 329 328 328 332
206 208 211 215 216 215 214 213 216 220 217 217 220 218 217 216 216 219 222 222 222 226 230 233 236 236 237 240 246 252 257 260 272 280 284 287 291 300 305 312 315 315 317 318 318 319 320 320 321
206 203 208 218 218 218 219 218 217 221 220 217 219 218 214 214 217 222 225 225 226 230 233 236 233 234 238 242 246 252 253 254 267 279 285 289 293 296 301 308 312 313 313 312 313 315 314 313 315
206 208 213 216 214 217 218 217 215 218 216 215 215 214 213 215 215 221 225 225 227 231 234 236 236 237 241 243 246 253 250 254 264 274 281 287 292 295 297 303 306 309 310 310 309 310 310 309 309
206 213 210 210 212 213 215 220 218 212 215 217 218 214 213 213 214 221 225 226 230 232 233 235 237 239 242 246 247 251 251 256 262 270 279 285 289 292 295 296 299 301 303 306 308 308 307 307 306
204 210 207 209 211 214 216 216 212 209 211 213 215 213 212 213 215 220 226 229 231 231 231 232 235 238 241 245 248 250 252 257 264 270 276 281 286 290 292 292 294 295 296 299 301 304 305 304 303
207 209 209 210 213 215 216 213 207 208 209 210 212 214 213 213 214 219 225 231 232 230 231 231 236 239 243 247 249 250 251 257 264 270 275 279 283 287 287 289 291 291 291 293 295 298 300 301 301
206 213 210 214 215 215 216 210 209 208 209 211 213 215 218 221 221 222 225 232 232 232 232 233 239 244 245 248 248 251 255 257 263 269 274 278 282 286 286 285 287 287 288 290 292 293 294 296 298
211 215 216 220 227 224 221 219 217 214 217 219 217 221 226 231 227 223 226 230 232 233 233 240 244 246 246 249 249 253 256 258 262 268 274 279 283 285 285 284 285 285 286 288 289 291 292 293 294
220 217 218 224 230 230 231 226 229 226 228 225 223 224 228 232 228 226 229 232 234 234 240 245 247 250 250 251 252 258 260 261 265 270 274 278 282 284 284 282 282 284 287 287 288 290 291 291 292
Height
5890 5891 5893 5894 5896 5896 5895 5896 5896 5897 5897 5898 5899 5900 5901 5903 5905 5907 5904 5903 5904 5904 5904 5904 5904 5904 5904 5903 5903 5903 5902 5901 5900 5899 5898 5897 5896 5895 5894 5893 5891 5890 5889 5888 5887 5887 5887 5886 5886
5890 5891 5893 5894 5894 5894 5895 5895 5896 5897 5897 5898 5899 5900 5901 5902 5903 5904 5903 5904 5904 5904 5904 5904 5905 5905 5904 5904 5904 5903 5902 5901 5901 5900 5899 5897 5896 5895 5894 5892 5891 5889 5888 5887 5886 5886 5886 5885 5885
5889 5891 5893 5893 5893 5894 5895 5895 5896 5896 5897 5898 5899 5900 5901 5902 5903 5903 5903 5904 5904 5904 5904 5905 5905 5905 5904 5904 5904 5903 5902 5902 5901 5900 5899 5897 5896 5895 5893 5892 5891 5889 5888 5886 5885 5885 5884 5884 5884
5888 5890 5891 5892 5892 5893 5893 5894 5895 5896 5896 5897 5898 5899 5900 5902 5902 5903 5903 5904 5904 5904 5905 5905 5905 5905 5905 5904 5904 5903 5903 5902 5901 5900 5899 5897 5896 5895 5893 5892 5890 5889 5887 5886 5885 5884 5883 5883 5883
5886 5888 5890 5890 5891 5892 5892 5893 5894 5895 5896 5897 5898 5899 5900 5901 5902 5902 5903 5904 5904 5904 5905 5905 5905 5905 5905 5904 5904 5903 5903 5902 5901 5900 5899 5897 5896 5895 5893 5891 5890 5888 5887 5885 5884 5883 5882 5882 5882
5884 5886 5888 5888 5889 5890 5891 5892 5893 5894 5895 5896 5898 5899 5900 5900 5901 5902 5902 5903 5904 5904 5905 5905 5905 5905 5905 5904 5904 5903 5902 5902 5901 5900 5899 5897 5896 5895 5893 5891 5890 5888 5886 5885 5883 5882 5882 5881 5881
5882 5884 5885 5886 5888 5889 5890 5891 5892 5892 5894 5896 5897 5898 5899 5900 5900 5901 5902 5903 5903 5904 5904 5905 5905 5905 5905 5904 5904 5903 5903 5902 5901 5900 5899 5898 5896 5894 5893 5891 5889 5887 5886 5884 5883 5881 5881 5880 5880
5879 5882 5883 5885 5886 5887 5889 5890 5891 5892 5893 5895 5897 5898 5899 5900 5900 5901 5902 5902 5903 5904 5904 5905 5905 5905 5905 5904 5904 5903 5903 5902 5901 5900 5899 5897 5896 5894 5892 5891 5889 5887 5885 5884 5882 5881 5880 5879 5879
5877 5881 5881 5883 5884 5885 5887 5889 5890 5891 5893 5894 5896 5897 5898 5899 5900 5900 5901 5902 5903 5903 5904 5904 5904 5904 5904 5904 5904 5903 5903 5902 5901 5900 5899 5897 5896 5894 5892 5890 5889 5887 5885 5883 5882 5880 5879 5879 5878
5875 5877 5879 5881 5883 5884 5885 5887 5888 5890 5891 5893 5895 5896 5897 5898 5899 5900 5901 5902 5902 5903 5904 5904 5904 5904 5904 5904 5903 5903 5902 5902 5900 5899 5898 5897 5895 5894 5892 5890 5889 5887 5885 5883 5881 5880 5879 5878 5877
5873 5875 5877 5879 5881 5882 5883 5885 5887 5888 5890 5892 5893 5895 5896 5897 5898 5899 5900 5901 5902 5903 5903 5903 5904 5904 5903 5903 5903 5902 5902 5901 5900 5899 5898 5897 5895 5894 5892 5890 5888 5887 5885 5883 5881 5880 5878 5877 5877
5871 5873 5875 5877 5878 5880 5882 5884 5885 5887 5888 5890 5892 5893 5895 5896 5897 5898 5899 5900 5901 5902 5903 5903 5903 5903 5903 5903 5902 5902 5901 5901 5900 5899 5898 5897 5895 5894 5892 5890 5888 5886 5884 5883 5881 5879 5878 5877 5876
5868 5870 5872 5874 5877 5878 5880 5882 5883 5885 5887 5888 5890 5892 5893 5894 5896 5897 5898 5899 5900 5901 5902 5902 5902 5902 5902 5902 5901 5901 5901 5900 5899 5898 5898 5896 5895 5893 5892 5890 5888 5886 5884 5883 5881 5880 5878 5877 5876
5866 5868 5870 5872 5875 5876 5878 5880 5882 5883 5885 5887 5888 5890 5891 5893 5894 5896 5897 5898 5899 5900 5901 5901 5901 5901 5901 5901 5900 5900 5900 5899 5899 5898 5897 5896 5894 5893 5892 5890 5888 5886 5884 5883 5881 5880 5879 5878 5876
5864 5867 5869 5871 5873 5874 5876 5878 5880 5881 5883 5885 5887 5888 5890 5891 5893 5894 5895 5896 5898 5899 5899 5900 5900 5900 5900 5900 5899 5899 5899 5899 5898 5897 5896 5895 5894 5893 5892 5890 5888 5886 5884 5883 5881 5880 5879 5878 5877
5863 5865 5868 5869 5870 5872 5876 5876 5878 5879 5881 5883 5885 5886 5888 5890 5891 5893 5894 5895 5896 5897 5898 5899 5899 5899 5899 5899 5899 5898 5898 5898 5897 5897 5896 5895 5894 5893 5891 5890 5888 5886 5885 5883 5882 5880 5879 5878 5877
5861 5863 5865 5867 5869 5871 5873 5874 5876 5877 5879 5881 5883 5885 5886 5888 5889 5891 5892 5893 5895 5896 5896 5897 5897 5898 5898 5898 5898 5897 5897 5897 5897 5896 5895 5894 5893 5892 5891 5890 5888 5886 5885 5883 5882 5881 5879 5878 5877
5860 5862 5863 5865 5867 5869 5870 5872 5874 5875 5877 5879 5881 5883 5884 5886 5888 5889 5890 5892 5893 5894 5895 5896 5896 5896 5896 5896 5896 5896 5896 5896 5895 5895 5894 5894 5893 5892 5891 5889 5888 5886 5885 5883 5882 5881 5879 5878 5877
5858 5860 5862 5863 5865 5866 5868 5870 5872 5873 5875 5877 5879 5881 5882 5884 5886 5887 5889 5890 5891 5892 5893 5894 5894 5894 5895 5895 5895 5895 5895 5895 5894 5894 5893 5893 5892 5891 5890 5889 5887 5886 5885 5883 5882 5881 5879 5878 5877
5856 5858 5860 5861 5863 5864 5866 5868 5870 5871 5873 5874 5876 5879 5880 5882 5884 5885 5887 5888 5889 5890 5891 5892 5892 5893 5893 5893 5894 5894 5893 5893 5893 5892 5892 5891 5891 5890 5889 5888 5887 5885 5884 5883 5881 5880 5879 5878 5877
5855 5856 5858 5859 5861 5862 5864 5866 5868 5869 5871 5872 5874 5876 5878 5880 5881 5883 5885 5886 5887 5888 5889 5890 5891 5891 5891 5892 5892 5892 5892 5891 5891 5891 5890 5890 5889 5888 5888 5886 5885 5884 5883 5882 5881 5880 5879 5877 5876
5854 5855 5857 5858 5859 5861 5863 5864 5866 5867 5869 5870 5872 5873 5875 5877 5879 5880 5882 5883 5885 5886 5887 5888 5888 5889 5890 5890 5890 5890 5890 5890 5890 5889 5889 5888 5887 5887 5886 5885 5884 5883 5882 5881 5880 5878 5877 5876 5875
5852 5853 5855 5856 5857 5859 5860 5862 5864 5865 5866 5868 5870 5871 5873 5875 5876 5878 5880 5881 5882 5883 5884 5885 5886 5887 5887 5888 5888 5888 5888 5888 5888 5888 5887 5887 5886 5885 5885 5884 5883 5882 5881 5880 5878 5877 5876 5875 5874
5851 5853 5854 5854 5856 5858 5859 5860 5862 5862 5864 5866 5867 5868 5871 5872 5874 5876 5877 5879 5880 5881 5882 5883 5884 5885 5885 5886 5886 5886 5886 5886 5886 5886 5886 5885 5884 5884 5883 5882 5881 5880 5879 5878 5877 5876 5874 5873 5872
5851 5852 5853 5853 5854 5856 5857 5857 5860 5861 5862 5863 5865 5866 5868 5870 5872 5873 5875 5876 5877 5878 5879 5880 5881 5882 5883 5883 5884 5884 5884 5884 5884 5884 5883 5883 5882 5881 5881 5880 5879 5878 5877 5876 5875 5874 5872 5871 5870
5849 5851 5852 5853 5853 5854 5855 5856 5858 5858 5859 5860 5862 5864 5866 5868 5869 5871 5872 5873 5875 5876 5877 5878 5879 5880 5880 5881 5881 5881 5882 5882 5882 5881 5881 5880 5880 5879 5878 5877 5876 5876 5875 5874 5873 5871 5870 5869 5867
5848 5849 5850 5851 5851 5852 5853 5854 5855 5856 5857 5859 5860 5862 5863 5865 5866 5868 5869 5871 5872 5873 5874 5875 5876 5877 5878 5878 5878 5879 5879 5879 5879 5879 5878 5877 5877 5876 5875 5875 5874 5873 5872 5871 5870 5869 5868 5866 5865
5848 5848 5849 5849 5850 5850 5851 5852 5854 5854 5856 5857 5858 5860 5861 5862 5864 5865 5866 5868 5869 5870 5871 5872 5873 5874 5875 5875 5875 5876 5876 5876 5876 5875 5875 5874 5874 5873 5873 5872 5871 5870 5869 5868 5867 5866 5865 5863 5862
5846 5847 5847 5848 5848 5850 5850 5853 5852 5853 5854 5855 5857 5858 5859 5860 5861 5863 5864 5865 5866 5867 5868 5869 5870 5871 5872 5872 5872 5873 5873 5873 5873 5872 5872 5871 5870 5870 5869 5868 5867 5867 5866 5865 5863 5862 5861 5860 5858
5844 5845 5846 5847 5847 5848 5848 5853 5850 5851 5852 5853 5855 5856 5857 5858 5859 5860 5861 5862 5863 5864 5865 5866 5867 5868 5869 5869 5869 5869 5869 5869 5869 5869 5868 5867 5867 5866 5865 5865 5864 5863 5862 5861 5859 5858 5857 5856 5855